Theta_e
318 323 327 325 324 333 343 348 346 345 347 349 347 344 345 347 350 357 359 356 355 356 360 360 359 357 353 351 349 347 347 347 348 347 347 347 347 346 346 345 345 344 344 344 346 347 348 349 350 350 350 350 351 352 352 351 351 351 350 350 349 348 349 348 348 348 348 348 349 349 349 349 349 349 350 350 351 351 350 348 347 348 348 348 348 347
321 326 327 323 322 325 333 346 350 349 350 349 344 340 341 346 351 357 358 355 355 356 357 358 358 357 353 351 349 348 349 348 348 348 348 347 347 346 346 346 345 344 344 344 346 348 349 350 351 351 351 351 352 352 352 352 352 352 351 350 350 349 349 349 349 348 348 348 349 350 350 350 350 351 351 351 351 351 350 348 348 349 349 348 348 348
322 325 324 321 321 319 323 335 345 350 350 348 346 338 334 344 352 354 354 352 353 357 357 356 359 359 354 351 349 348 349 348 348 347 348 347 347 346 346 346 345 344 343 343 345 348 349 350 351 351 351 351 352 352 352 352 352 352 351 351 351 349 350 350 348 346 347 347 347 349 350 350 351 351 351 351 351 350 351 350 349 350 350 349 349 348
321 322 322 321 320 321 321 324 330 338 339 341 342 331 331 347 348 344 351 351 351 357 357 356 359 359 357 352 350 350 350 350 350 348 347 347 347 347 345 345 345 344 344 343 344 347 349 350 351 351 352 352 352 352 352 352 352 352 352 352 350 348 349 348 346 345 346 345 344 347 348 349 350 350 349 350 350 350 351 351 350 350 350 350 350 350
321 320 320 320 320 322 322 322 323 324 325 333 339 330 331 346 347 345 352 351 352 356 354 356 355 355 358 354 351 351 351 351 350 348 347 347 347 346 344 344 344 343 343 344 344 346 349 350 351 351 352 352 352 352 353 352 352 352 352 351 349 347 347 346 345 345 345 345 345 346 347 348 349 349 349 350 351 351 351 351 351 351 350 350 351 350
320 318 318 320 321 321 322 322 322 321 320 324 335 335 333 343 351 353 354 351 353 354 353 355 352 352 357 356 352 351 350 351 351 349 348 347 346 345 345 344 343 342 343 344 344 347 349 351 351 352 352 352 352 352 352 352 351 352 352 349 347 346 346 345 344 345 345 345 346 347 349 350 350 351 351 350 351 351 351 352 352 351 350 349 350 351
319 318 318 320 321 321 322 322 321 323 319 318 331 342 342 349 354 353 353 351 352 353 354 356 353 352 354 355 354 350 351 351 351 351 349 347 347 345 344 343 342 342 341 343 345 347 349 350 351 352 352 352 352 352 352 352 351 352 351 349 347 346 345 345 345 345 346 346 347 349 351 351 351 352 351 349 350 350 350 351 351 350 348 348 350 352
318 318 318 320 320 320 321 320 321 322 318 321 339 350 349 353 355 352 351 351 352 353 354 356 354 351 351 355 357 351 351 352 350 352 351 350 347 344 344 343 342 341 340 342 344 347 350 351 352 352 351 351 351 352 352 352 352 351 350 348 348 347 345 345 345 345 347 347 348 349 351 351 351 351 350 347 347 348 349 350 351 351 348 345 346 349
318 318 319 320 320 320 320 320 322 323 328 338 349 352 350 354 354 353 351 349 350 350 351 354 354 352 350 356 360 353 350 351 351 351 351 352 348 344 344 342 341 341 340 342 344 347 350 351 351 351 352 352 351 352 352 351 352 351 350 348 348 347 345 346 346 346 347 347 348 348 350 351 350 350 350 347 346 347 347 349 350 351 349 344 340 342
318 318 319 318 319 319 318 320 319 323 339 347 349 349 351 353 352 353 351 348 348 347 346 349 352 351 350 354 358 355 351 351 352 351 350 352 349 345 344 342 340 341 341 342 343 348 350 350 351 351 351 352 351 352 352 351 352 352 351 349 348 347 346 347 346 346 347 348 348 348 349 351 350 349 349 348 346 346 347 348 349 350 350 346 343 343
318 319 320 318 319 321 323 325 321 327 343 345 346 349 348 350 350 351 349 347 347 345 342 345 349 350 349 351 354 355 353 353 352 350 350 351 350 345 343 342 340 340 342 343 344 348 350 350 351 351 351 351 351 352 352 352 352 352 352 351 349 348 347 347 347 347 348 347 348 348 348 349 350 349 349 349 347 346 346 348 350 351 351 349 348 349
317 318 320 319 320 325 332 334 330 336 344 344 346 344 338 343 345 344 345 345 343 343 344 348 351 350 347 349 354 354 354 354 351 350 350 350 350 345 342 341 340 341 342 342 344 347 350 351 351 351 351 351 352 352 352 352 352 353 353 352 351 349 348 348 347 347 348 348 348 349 348 349 349 349 349 349 348 347 347 349 352 351 352 352 351 351
317 317 318 318 323 329 333 338 340 343 344 342 341 332 328 336 337 335 342 343 340 342 346 350 351 350 348 349 354 353 352 354 354 351 349 349 350 346 342 341 340 342 342 342 345 346 349 351 351 350 351 352 352 352 352 352 352 353 353 353 352 351 349 349 348 348 348 348 349 349 349 348 348 348 349 349 349 348 348 350 352 352 352 354 353 352
315 316 321 323 326 330 329 333 338 342 343 339 334 325 323 330 331 334 342 342 340 341 345 350 351 349 346 348 355 352 349 352 354 352 349 348 350 347 342 341 341 343 344 344 345 345 348 350 350 351 352 352 352 352 352 352 352 353 353 353 353 352 350 349 349 349 349 349 348 348 349 349 348 348 349 350 351 350 349 349 351 352 354 354 354 354
312 314 324 328 327 331 330 331 336 341 342 340 337 329 323 323 325 330 337 338 338 341 344 350 350 345 344 350 356 352 348 349 350 351 349 348 350 347 342 342 342 343 346 346 345 345 348 350 350 350 352 352 352 352 352 353 353 353 353 353 353 352 350 349 349 349 350 350 349 348 349 348 348 349 350 351 351 350 349 349 350 350 352 354 353 353
313 314 322 324 328 335 332 334 341 341 340 342 341 334 326 325 326 328 334 337 339 341 343 346 347 345 347 353 356 354 351 349 349 349 348 348 350 346 343 343 342 342 345 346 346 346 349 350 350 351 351 351 353 352 352 353 354 354 353 353 352 352 351 349 349 350 350 350 350 349 349 348 348 350 351 351 350 350 349 350 350 349 350 351 352 350
314 316 320 320 330 338 334 338 344 336 335 340 337 331 331 334 335 332 335 341 340 338 341 342 343 346 346 348 356 356 352 350 350 349 348 349 350 346 343 343 342 342 344 346 347 347 349 351 350 351 351 351 352 353 353 354 353 354 354 353 353 353 352 351 350 351 351 351 351 350 348 348 350 351 352 352 351 350 349 348 349 350 350 350 350 351
316 316 320 322 331 340 338 339 343 339 337 337 332 333 337 339 337 334 335 340 340 337 338 340 342 344 341 343 355 359 354 353 351 349 350 351 351 347 343 343 342 342 344 347 348 348 350 351 351 351 351 351 352 352 353 354 354 354 354 354 354 354 354 352 352 352 352 352 352 351 349 349 351 352 353 353 352 351 349 349 349 350 351 350 350 351
318 316 318 323 331 341 343 339 340 341 339 336 335 337 338 337 337 339 338 337 336 334 335 338 342 343 339 341 351 356 356 357 353 351 352 353 352 349 345 344 342 342 344 345 347 348 349 351 351 351 351 351 352 352 353 354 354 354 354 354 354 354 354 353 354 354 353 352 353 353 351 351 351 352 353 353 353 351 350 351 351 351 352 351 351 350
320 317 316 321 330 338 343 341 336 338 338 337 339 338 337 339 340 342 340 333 331 331 332 335 337 337 341 347 352 355 357 356 354 352 353 353 353 351 348 347 345 343 344 345 345 347 349 351 351 351 352 352 352 353 353 354 355 355 355 355 354 354 354 354 355 355 353 353 353 353 353 353 351 352 354 353 352 352 353 353 353 354 353 352 352 351
323 320 316 322 331 334 341 341 336 338 340 335 336 334 333 334 336 339 340 333 329 330 331 332 331 332 344 355 356 357 357 355 354 352 352 352 352 351 350 349 347 345 344 344 344 346 348 351 350 350 352 352 353 353 353 353 355 355 355 355 355 355 355 355 356 356 355 354 354 353 352 354 354 354 355 354 354 354 355 355 354 354 354 353 352 352
323 322 318 319 324 327 333 333 327 331 339 337 336 336 334 334 333 335 337 333 327 328 330 331 329 333 348 357 355 357 356 353 353 352 351 351 351 351 351 349 348 346 344 344 343 343 348 350 350 351 352 352 353 353 353 354 355 355 356 356 356 356 356 356 356 357 356 355 354 353 353 354 356 356 356 356 356 355 356 356 354 353 353 354 353 352
326 326 321 318 319 321 324 326 322 323 332 336 335 336 338 336 334 333 332 330 327 327 330 330 328 336 351 356 355 357 355 353 353 352 352 351 351 352 351 349 349 347 345 344 342 343 348 350 350 351 352 353 353 354 354 354 355 356 357 357 357 357 356 355 356 357 357 356 355 355 355 356 356 357 356 357 356 356 356 356 355 353 353 354 355 354
329 329 324 321 323 323 322 326 326 325 330 330 330 336 336 332 333 333 331 332 328 325 329 330 328 336 351 355 355 356 355 353 353 352 352 351 351 351 350 350 350 349 348 345 343 345 348 350 350 351 352 354 354 354 355 355 357 357 357 357 357 357 357 356 356 358 357 357 356 357 357 357 357 357 357 357 356 356 355 355 356 355 354 355 356 356
327 329 326 321 320 320 320 323 327 331 332 327 330 341 342 337 336 333 330 332 328 325 330 330 326 337 352 356 354 355 355 355 353 351 351 351 350 350 349 350 350 350 350 347 346 347 347 348 351 352 353 354 354 355 355 356 356 357 357 357 356 356 357 357 357 358 357 357 358 358 358 358 358 357 358 357 356 356 355 355 356 356 356 357 356 357
328 332 329 322 319 320 324 328 332 337 337 333 338 346 347 344 340 333 328 326 325 328 332 329 329 342 356 357 354 355 355 355 354 352 351 351 350 349 349 349 350 351 351 349 348 348 348 350 352 353 353 354 354 354 356 356 356 357 357 357 356 357 357 358 357 357 357 358 359 359 358 358 358 358 358 358 356 355 355 355 356 357 357 357 358 358
333 334 334 333 329 328 334 336 338 340 340 341 344 346 347 347 344 337 327 322 326 328 329 334 341 347 355 358 357 356 354 354 354 352 351 353 351 350 350 349 350 351 352 351 349 349 350 351 353 354 353 354 353 353 355 355 356 357 357 357 357 357 357 357 357 356 357 357 359 359 357 358 358 358 358 358 357 356 356 356 356 357 357 358 358 358
335 331 333 340 338 337 339 338 336 337 339 341 343 343 347 347 342 334 326 328 333 324 323 342 353 351 355 360 358 357 356 354 354 353 352 354 353 351 351 350 351 351 352 352 351 351 351 351 353 354 353 353 353 353 354 355 356 356 356 357 357 357 357 357 356 356 357 357 359 358 356 356 357 358 358 358 357 356 357 357 357 358 358 358 358 357
334 327 330 339 339 338 338 336 334 335 335 337 337 338 343 346 341 335 335 340 338 326 329 348 356 354 358 359 356 356 356 354 354 354 353 354 354 353 352 352 353 353 353 353 352 352 351 352 353 354 354 352 353 353 354 354 355 356 356 356 357 356 356 356 356 356 357 357 358 356 354 353 355 355 355 356 355 354 355 357 358 358 359 358 357 357
331 328 331 337 339 339 339 337 337 336 334 334 334 335 339 345 346 344 345 346 342 339 346 354 356 357 357 355 353 353 352 353 354 352 353 354 353 353 354 355 355 355 355 354 353 353 351 351 353 354 353 353 353 353 353 354 355 356 356 356 356 355 355 355 356 357 357 358 357 356 354 353 352 352 353 354 353 352 353 355 357 358 358 358 357 357
328 331 333 335 336 337 338 337 336 336 335 334 335 335 337 342 347 348 348 349 348 350 355 355 355 358 355 351 352 351 350 352 352 351 353 354 352 352 353 354 354 354 353 352 353 353 350 350 352 353 353 353 353 353 354 355 356 356 356 356 355 354 354 354 355 356 357 357 357 357 356 356 354 353 353 353 353 353 352 353 354 355 356 357 357 357
328 330 330 332 334 334 336 338 336 334 335 337 338 337 337 340 346 349 350 351 351 352 354 353 354 357 355 351 351 351 350 351 351 351 352 351 351 352 353 353 352 352 351 351 352 352 351 350 352 353 354 354 353 354 354 356 356 356 356 357 356 354 354 354 355 356 357 356 356 356 357 357 357 356 355 354 354 354 352 351 352 354 355 357 358 357
330 329 329 330 330 330 334 336 335 330 330 338 341 338 336 338 342 348 351 350 350 352 354 354 353 355 354 351 352 353 350 349 350 350 350 351 350 350 351 351 351 350 349 350 350 350 349 350 351 352 352 352 353 353 353 354 356 356 356 356 356 354 354 355 356 357 357 357 356 356 356 357 357 357 357 356 355 354 353 353 353 354 355 355 356 356
330 329 330 330 328 330 333 333 333 330 329 337 343 340 337 337 338 344 348 346 346 350 353 354 354 353 351 351 352 352 349 349 349 347 347 349 349 348 349 349 349 349 348 348 348 347 348 349 350 350 349 349 351 352 350 351 353 354 353 353 354 353 354 355 357 357 358 358 357 356 356 356 356 356 357 357 356 356 355 355 355 355 354 354 354 355
329 328 330 329 327 331 332 329 332 334 333 336 339 338 337 337 336 339 342 342 342 346 349 352 353 351 350 350 349 349 347 346 345 345 345 345 345 346 346 346 345 346 346 346 346 345 346 347 349 349 348 346 347 348 349 350 351 351 351 352 352 353 354 355 356 357 358 357 356 356 356 355 355 355 355 355 355 356 356 356 355 354 355 354 353 354
329 327 328 327 325 328 330 329 332 336 336 333 333 333 335 336 337 339 342 342 340 341 346 350 351 349 348 347 345 345 345 343 342 344 344 342 342 342 342 343 343 342 343 343 342 342 343 344 345 347 347 346 345 345 346 348 349 350 351 352 352 353 354 354 354 355 355 355 354 354 354 354 353 352 352 352 352 353 354 355 354 353 353 353 354 354
330 330 328 325 324 328 331 332 333 335 337 336 335 333 333 334 336 341 345 343 339 339 343 348 349 348 346 345 344 342 342 342 343 343 341 340 339 339 339 339 339 338 339 339 339 340 340 341 343 344 345 346 346 345 344 344 345 347 348 349 350 352 353 353 353 352 352 352 352 351 351 350 350 349 348 349 349 350 351 352 352 351 351 351 353 355
328 333 331 325 324 328 331 333 336 337 337 337 334 330 329 330 333 337 343 344 340 340 343 345 347 347 346 345 344 341 341 345 348 345 341 337 336 336 336 336 336 336 336 337 337 338 339 340 341 341 342 344 344 345 345 344 345 345 347 349 350 350 351 351 351 351 350 349 349 349 348 347 348 348 348 348 348 348 348 348 348 348 348 349 350 352
326 333 333 325 324 328 327 329 335 337 334 333 332 330 329 329 330 333 341 344 341 340 343 345 346 346 345 344 343 343 344 348 349 345 339 335 334 334 334 334 335 335 335 335 336 336 337 338 339 339 341 341 342 344 345 345 346 346 347 347 348 348 349 348 347 347 346 345 345 346 345 345 346 347 348 348 348 347 347 346 346 347 347 347 347 348
327 331 329 322 324 328 326 325 330 333 332 332 332 330 330 330 330 332 335 339 339 339 341 344 344 345 343 342 342 343 346 348 347 342 336 333 333 333 332 333 333 334 334 334 334 335 335 336 336 337 338 338 340 343 344 345 346 344 344 344 344 345 346 345 344 344 343 342 343 344 345 344 344 346 347 347 347 347 347 346 346 347 346 346 346 346
330 331 328 324 326 328 326 325 327 330 332 333 332 330 330 328 328 328 329 333 338 340 341 341 342 342 341 340 341 343 343 342 339 336 333 332 332 332 332 332 332 333 333 333 333 334 334 334 335 335 336 337 338 340 342 343 342 340 340 341 341 341 341 342 342 343 342 342 342 343 344 344 344 345 346 346 346 346 346 346 346 347 346 346 346 345
327 328 328 327 328 328 327 326 326 327 330 331 331 330 329 326 324 328 332 334 337 339 339 339 340 340 340 340 341 341 339 336 334 332 332 331 331 331 332 332 332 332 332 332 333 333 333 333 333 333 333 334 335 336 337 337 336 335 336 336 336 337 339 341 342 343 342 342 343 343 344 344 344 345 345 345 345 345 345 345 345 345 345 346 346 345
325 324 325 328 329 329 329 327 327 328 329 330 331 331 331 330 331 335 337 338 338 338 338 338 339 340 339 340 340 339 336 334 332 332 331 331 331 331 332 332 332 332 331 331 331 331 331 331 331 330 330 331 331 331 332 333 332 332 333 333 333 335 337 339 341 341 341 341 342 342 343 343 343 343 344 344 343 344 344 344 344 344 345 345 345 343
327 325 326 329 329 328 328 329 331 332 331 329 331 333 334 334 334 337 340 339 338 338 338 339 339 339 338 339 339 337 336 334 333 332 332 331 331 332 332 332 332 331 331 331 330 330 330 330 329 329 328 328 329 329 329 329 330 330 331 332 334 335 336 338 339 339 339 339 340 341 341 341 341 342 342 342 342 342 342 343 343 343 343 343 343 341
327 327 327 329 329 328 329 332 333 332 329 328 330 333 334 334 333 336 339 339 337 337 337 338 339 338 337 338 338 337 335 334 332 331 331 331 330 331 332 332 331 330 330 329 329 329 329 329 329 328 327 327 327 327 326 327 327 328 330 332 333 332 331 332 335 336 335 335 336 337 338 339 339 340 340 340 341 341 341 342 342 342 342 341 340 338
327 326 329 331 331 330 331 331 331 331 331 331 330 331 333 334 335 336 338 339 337 336 336 336 337 336 336 337 337 336 334 332 331 331 330 330 329 330 331 331 330 330 329 328 329 328 327 327 327 328 327 327 325 325 324 324 325 326 328 330 330 328 326 327 329 330 331 331 332 332 333 335 337 339 340 339 339 339 339 340 341 340 340 338 336 335
327 326 330 333 331 332 334 333 332 332 332 332 333 334 334 335 336 336 338 338 337 336 336 336 335 335 335 336 336 335 333 331 331 331 330 329 330 330 330 330 330 328 326 326 325 324 325 327 328 327 328 327 326 325 324 324 324 324 325 326 328 328 327 327 327 328 329 329 328 328 329 331 334 337 339 338 337 336 336 337 337 337 336 336 335 335
328 328 330 332 331 332 334 332 331 330 330 330 333 335 337 336 336 336 336 336 335 335 335 335 335 333 333 334 334 333 332 331 331 331 330 330 330 330 329 330 329 327 325 324 324 323 325 327 328 328 328 328 327 326 325 324 325 325 324 324 325 325 326 327 328 329 329 329 328 328 329 330 332 334 335 335 334 334 334 334 333 333 333 333 334 334
328 329 330 332 332 332 333 331 330 332 333 333 334 334 335 336 336 335 335 335 335 335 335 334 335 334 333 334 333 332 331 332 332 332 331 331 331 330 330 329 329 328 326 325 325 325 326 326 327 328 327 327 326 326 325 325 325 325 325 324 324 324 324 326 328 329 330 329 329 329 330 330 330 331 331 330 330 330 331 332 332 332 332 332 332 333
329 330 329 330 332 333 334 333 333 335 335 335 335 334 333 334 335 335 335 335 335 335 335 334 334 334 334 334 333 332 331 332 334 334 333 333 332 330 329 330 329 327 326 325 325 326 326 326 326 327 327 326 326 326 326 326 326 326 326 326 325 325 325 326 327 328 329 329 329 329 329 329 328 328 328 328 327 327 328 329 330 331 332 333 333 333
331 331 331 331 330 331 333 334 333 335 336 335 334 333 331 333 336 336 335 335 335 336 336 334 333 333 333 333 333 333 333 333 334 334 334 334 332 329 328 329 330 328 327 326 326 327 327 326 327 327 326 327 327 327 327 325 325 325 326 326 326 325 325 326 328 329 329 328 328 328 328 327 327 326 326 326 326 325 325 325 326 328 330 332 333 334
Wind_Speed
2 5 6 5 4 4 5 7 5 1 3 2 1 1 0 1 1 2 1 3 6 3 2 3 2 3 5 8 10 12 12 12 12 12 11 11 11 11 11 11 11 11 10 9 12 13 13 12 12 13 13 13 13 13 14 14 13 13 13 13 13 12 12 12 12 12 13 13 12 11 11 11 11 11 10 9 7 7 8 9 10 9 8 8 7 6
3 7 4 1 1 3 4 5 6 5 4 4 4 3 2 1 1 2 2 1 4 3 2 2 2 4 5 6 8 10 12 13 13 13 12 13 12 11 12 12 11 10 8 8 11 12 13 13 13 13 13 14 14 14 15 14 14 14 13 13 13 13 13 13 13 14 15 14 13 12 12 11 11 11 9 8 8 8 8 10 10 9 8 7 7 6
4 4 1 1 2 2 1 3 5 7 7 5 3 2 3 1 1 2 2 3 2 2 2 2 2 2 3 3 7 10 12 11 11 13 13 14 13 12 12 12 11 10 8 9 11 13 14 14 14 13 13 14 15 15 15 14 15 15 14 13 13 14 13 13 15 17 17 17 15 14 13 11 9 9 9 8 9 9 8 9 10 9 8 8 7 6
4 2 1 1 4 3 1 3 4 5 5 4 3 3 2 1 2 1 1 1 4 2 1 3 3 1 1 2 5 7 7 6 6 9 10 12 13 13 14 13 12 12 10 10 11 13 14 14 14 14 13 15 15 15 15 15 15 16 15 14 14 16 15 14 18 19 18 17 17 16 15 12 9 9 9 8 9 9 8 9 10 9 8 7 6 6
2 2 4 3 3 3 2 2 3 4 3 2 2 3 4 3 3 1 4 2 3 3 2 4 3 1 2 4 7 7 4 4 6 8 9 10 11 11 12 12 12 12 11 11 12 12 13 15 15 14 14 15 15 15 16 16 16 15 16 16 16 17 17 17 19 18 17 17 16 15 14 12 9 8 8 8 7 8 9 9 9 9 9 8 7 6
2 1 4 4 3 3 2 2 3 3 3 1 2 3 8 6 4 5 7 5 1 2 1 3 2 2 3 7 10 9 8 8 7 8 11 11 10 9 10 12 12 12 11 11 12 13 15 16 15 15 15 16 16 16 16 16 16 15 16 17 17 18 19 19 19 18 18 17 16 14 12 11 10 8 8 9 8 9 9 9 8 9 10 9 7 6
1 2 4 3 3 4 4 4 3 3 4 2 2 2 7 5 7 8 7 5 2 1 2 4 4 2 3 7 10 10 13 13 9 9 11 11 11 10 10 11 11 12 12 12 13 14 15 16 16 16 17 17 17 16 16 16 16 16 17 18 18 19 20 20 20 19 18 17 16 14 11 10 10 8 9 10 9 9 9 8 8 9 10 9 8 6
3 3 2 3 3 4 5 5 4 6 5 2 3 2 4 5 7 8 5 3 1 1 3 6 4 2 3 5 9 11 14 16 14 12 10 10 12 13 12 12 12 12 12 11 12 13 15 17 18 19 19 18 17 16 17 17 17 18 19 19 19 19 20 21 21 20 19 18 17 14 12 10 10 9 9 10 10 9 9 8 8 7 8 9 9 8
3 4 4 5 3 3 5 4 5 8 2 1 5 7 5 5 7 7 5 3 2 1 3 6 4 3 4 3 6 11 15 18 18 16 12 10 12 13 13 14 14 13 13 12 13 14 16 18 19 20 19 18 17 17 17 17 17 19 20 20 20 20 21 21 21 21 19 18 17 15 13 11 11 10 9 10 11 10 10 9 8 7 7 8 9 9
2 4 4 5 4 5 5 2 6 8 3 4 9 11 8 6 6 6 4 3 3 1 4 7 8 4 3 4 7 10 15 17 15 14 13 10 11 13 13 14 14 12 11 12 13 16 18 20 20 19 18 18 17 16 17 17 17 18 20 21 22 22 22 21 21 21 20 19 17 16 14 13 12 11 10 10 11 12 11 10 9 8 7 7 8 8
2 0 1 4 5 4 2 3 3 7 10 11 11 10 8 5 4 3 2 2 2 3 3 6 12 8 3 4 8 9 11 14 12 11 12 11 10 12 13 13 13 11 11 11 13 16 19 19 18 17 17 17 16 15 16 16 16 17 19 22 23 23 23 22 22 21 20 20 18 17 16 14 13 12 11 11 12 13 12 11 10 9 8 7 8 8
3 2 3 3 4 4 5 5 2 9 15 11 7 7 4 2 2 2 2 2 3 2 1 2 10 9 6 3 5 6 10 14 14 12 14 14 12 12 13 13 13 12 12 12 11 13 14 15 15 16 16 16 16 16 17 17 17 17 18 21 24 24 24 23 22 22 21 21 20 18 17 16 15 13 12 11 12 12 12 11 10 10 9 8 8 9
3 4 2 0 3 7 7 6 4 7 10 7 4 6 4 2 2 2 1 1 3 1 1 2 6 6 7 5 4 7 11 14 15 13 14 16 15 13 13 13 12 11 12 12 11 11 12 14 16 17 17 17 17 18 18 18 18 18 19 21 24 25 25 25 24 23 23 22 21 19 19 17 16 14 13 13 12 12 12 11 11 10 10 10 10 10
2 2 4 2 3 7 9 7 6 6 7 8 7 6 5 3 2 2 1 1 3 1 1 3 6 4 6 4 5 10 13 14 14 13 13 15 15 14 14 14 12 11 11 11 11 11 11 14 18 18 19 19 19 19 19 19 19 18 19 22 23 24 26 26 25 24 24 23 22 21 19 18 16 15 14 14 13 12 12 12 11 11 10 10 10 10
1 1 4 4 2 7 11 7 7 9 8 8 7 5 5 4 2 2 2 2 2 1 2 4 5 3 2 1 2 6 10 12 12 11 12 11 11 12 13 13 12 12 11 10 11 12 14 17 19 19 19 20 20 20 20 19 19 19 20 23 25 24 26 26 25 25 24 23 23 22 21 19 17 15 14 15 14 14 13 12 12 12 11 10 10 11
2 1 0 2 2 10 11 5 5 9 7 4 4 3 4 4 2 1 0 0 1 1 2 4 3 3 2 2 1 2 5 10 11 11 13 12 9 10 11 12 12 12 12 11 11 12 14 18 19 19 20 20 19 20 20 20 21 21 21 24 26 26 27 27 26 25 24 24 23 23 22 20 18 16 14 14 14 15 15 14 13 13 12 12 11 11
1 1 1 3 2 8 9 7 8 6 4 4 4 4 1 1 1 1 0 1 1 3 2 3 4 3 2 2 2 3 5 9 11 12 14 12 10 11 11 12 12 12 12 12 12 12 14 17 18 19 20 20 20 20 21 21 23 24 24 25 26 25 25 27 27 26 24 24 23 23 23 21 19 17 14 13 13 13 14 15 14 13 13 13 12 11
2 0 2 3 2 1 3 8 7 2 3 5 4 4 4 3 1 1 2 2 2 3 1 3 5 3 2 1 1 3 6 9 11 12 12 10 11 13 13 12 13 13 13 13 13 12 14 17 18 19 20 21 22 22 23 23 23 24 24 25 25 25 25 27 27 25 24 24 23 23 23 22 19 17 14 13 13 13 14 14 14 13 13 13 13 13
2 1 1 2 2 3 4 8 7 2 1 1 2 5 4 2 1 1 2 3 3 3 1 2 4 3 2 1 2 1 6 8 10 12 13 11 11 12 12 11 11 12 12 12 12 11 13 17 19 19 20 20 21 22 22 22 21 21 22 23 24 25 26 26 24 23 24 24 22 21 23 23 21 18 16 15 15 14 14 14 13 13 13 13 13 14
0 2 0 2 2 2 5 5 5 5 3 4 5 4 1 1 3 2 2 5 3 2 1 1 1 0 1 2 6 6 6 9 11 12 13 12 10 10 9 8 8 10 10 11 12 11 13 17 19 21 21 21 22 21 20 20 20 20 21 21 22 22 23 23 22 22 25 24 21 21 23 23 22 20 17 17 16 15 14 14 13 13 13 13 14 14
1 2 1 2 1 2 4 2 3 4 4 4 5 5 3 2 4 4 4 6 4 3 2 2 1 1 2 3 7 8 7 8 12 12 13 12 11 9 8 8 8 8 10 11 12 12 13 17 19 20 20 20 20 19 19 20 20 20 20 20 21 21 20 22 22 22 24 23 22 22 23 22 21 20 18 16 16 15 13 14 14 13 13 13 14 14
1 1 1 1 0 2 2 0 3 3 1 2 2 5 5 3 4 4 4 4 3 3 3 2 2 0 2 4 6 7 6 7 11 11 10 12 13 11 8 8 8 8 9 11 13 12 13 16 18 19 18 17 17 18 19 19 19 19 20 20 20 20 20 21 21 21 23 23 23 23 23 21 20 19 18 16 15 15 14 14 14 13 13 13 13 14
1 0 1 1 1 1 1 1 3 4 3 5 2 2 4 3 3 3 3 1 1 3 2 2 2 0 2 6 7 6 5 4 8 9 8 9 12 11 9 8 8 9 10 11 13 13 14 17 18 18 18 18 18 19 19 18 19 20 20 20 20 20 21 23 22 19 21 23 23 22 21 20 19 19 18 17 15 16 15 14 14 14 14 13 12 13
1 0 0 1 1 2 3 5 4 5 2 6 1 1 2 2 3 2 2 2 4 5 2 2 3 1 3 7 8 6 5 1 4 7 8 7 8 10 11 9 8 8 8 10 11 11 13 16 16 16 17 18 18 18 19 18 18 19 19 20 20 21 22 23 21 19 20 23 22 20 19 19 18 18 17 17 16 16 16 14 13 14 14 12 11 12
1 0 0 1 2 3 4 4 2 6 4 1 2 4 3 1 4 1 3 2 4 5 3 3 4 1 4 6 8 8 7 6 3 4 6 7 8 10 11 9 8 7 7 9 10 10 12 14 14 15 16 17 18 18 18 19 19 19 20 21 22 23 21 20 19 18 20 21 20 19 19 18 18 17 17 17 16 16 16 15 14 14 13 12 12 11
0 0 1 2 2 2 3 2 1 4 5 5 5 6 6 1 4 2 3 3 4 3 2 3 3 1 4 7 9 9 8 7 6 3 3 5 7 10 10 9 7 6 7 9 10 10 11 11 13 15 16 16 18 18 18 19 19 19 20 22 23 23 20 19 20 20 20 20 19 19 20 19 18 17 17 17 16 15 15 15 14 13 13 12 12 12
1 2 2 3 4 3 5 5 3 3 4 5 8 9 8 4 5 5 4 4 4 2 3 2 1 2 4 8 9 9 8 7 6 4 2 3 4 7 8 8 7 6 5 7 8 9 9 9 11 14 15 16 18 18 19 20 20 20 21 22 23 23 22 21 23 23 22 21 19 19 22 21 18 17 17 16 16 15 14 14 14 13 13 13 12 12
3 3 4 9 11 9 9 8 7 8 7 7 10 11 10 6 5 9 6 2 1 3 4 2 2 3 4 7 7 8 7 6 5 5 3 2 3 5 7 8 8 6 5 5 6 7 9 9 10 12 15 16 17 18 18 19 19 20 21 21 21 21 22 22 24 23 23 21 19 20 23 22 20 19 18 17 16 16 14 14 14 13 13 13 13 13
2 3 2 7 11 10 9 7 8 8 6 7 9 12 12 9 5 8 4 2 3 4 2 5 6 4 4 5 6 7 7 5 5 5 4 4 4 5 7 9 9 7 6 5 5 5 7 7 7 10 13 15 16 17 18 18 18 18 19 19 19 20 21 22 22 22 21 21 21 23 24 23 22 22 21 20 19 18 17 15 14 14 13 13 13 13
1 3 4 7 9 9 7 6 8 7 3 6 7 10 13 12 7 3 3 4 5 2 5 9 9 6 5 4 5 6 6 6 5 5 5 5 6 6 6 6 7 6 5 5 4 2 2 3 5 7 10 12 14 16 17 17 17 19 19 19 21 23 23 23 22 21 20 20 22 23 24 24 24 24 23 22 21 21 20 18 16 15 14 14 14 14
0 3 5 5 5 5 5 5 6 3 2 3 4 9 13 13 9 2 6 7 5 6 9 11 10 7 4 4 6 7 6 8 8 8 8 6 6 6 6 6 6 5 6 6 5 4 3 1 1 4 7 10 12 15 16 16 17 18 18 19 23 24 24 24 23 22 21 21 21 20 19 20 22 22 22 22 21 20 20 19 18 17 16 15 14 15
1 2 3 3 2 3 5 5 2 3 5 1 5 8 11 11 8 2 5 5 4 8 11 10 8 5 4 5 7 8 9 10 10 10 9 8 8 9 8 7 6 5 6 6 5 5 4 3 2 1 2 4 7 10 12 13 14 16 17 18 21 24 24 23 22 21 20 20 20 18 15 14 15 16 18 20 20 20 20 19 19 18 18 16 14 15
1 3 2 1 1 3 5 3 3 5 3 1 4 4 6 11 11 3 4 6 4 4 8 6 5 5 6 7 7 9 11 11 9 9 9 9 10 10 10 9 8 7 6 5 5 6 5 5 4 4 4 4 3 5 9 11 11 12 14 15 18 21 22 21 20 19 18 17 17 17 14 12 12 13 14 16 17 18 18 19 19 19 19 18 16 15
2 2 2 0 0 3 3 1 3 1 2 2 2 4 2 6 12 8 4 6 7 3 5 7 8 9 9 8 9 11 11 10 9 9 10 10 9 10 11 10 9 8 7 6 6 6 5 5 4 4 4 5 5 4 5 9 10 12 15 16 17 18 19 18 17 16 15 14 13 12 11 10 10 10 10 10 11 13 15 17 18 19 19 19 19 18
2 2 1 1 1 2 1 2 1 0 1 2 1 3 5 4 7 9 8 8 8 5 6 10 10 10 10 9 9 11 11 11 11 12 12 11 10 10 10 9 9 9 7 6 5 5 5 5 5 5 4 5 6 6 2 2 6 10 13 14 15 16 18 18 16 15 14 12 12 12 12 10 9 9 9 9 10 9 9 11 15 17 17 19 19 18
3 2 1 1 2 2 1 0 0 1 1 3 4 1 3 1 3 6 6 6 7 7 3 8 10 10 10 9 9 8 9 10 11 12 12 11 11 10 9 8 8 8 7 6 6 6 6 5 6 5 6 8 9 9 7 2 3 6 8 10 12 14 15 16 17 17 14 12 13 15 15 13 11 11 10 10 12 12 10 8 9 11 12 14 15 15
3 3 2 1 1 1 1 0 0 1 1 2 3 1 2 2 2 2 3 3 2 4 3 4 9 9 9 9 7 5 4 7 9 9 10 11 10 9 9 9 9 9 9 8 8 7 6 5 5 5 3 5 7 10 12 10 7 6 6 8 10 12 13 13 15 15 13 12 12 12 11 12 12 12 11 11 12 15 14 11 10 10 10 12 12 10
2 1 2 2 1 1 1 1 1 1 1 2 3 2 2 3 4 4 2 3 1 3 3 2 6 8 9 8 6 2 1 5 8 7 8 9 9 9 10 10 11 11 11 10 9 9 8 7 6 7 6 3 3 6 10 9 9 9 8 8 9 12 13 13 13 14 13 11 9 5 4 6 8 10 11 11 13 15 16 15 14 14 13 12 11 10
5 2 1 1 1 2 2 2 2 2 1 2 4 3 3 3 5 7 4 1 2 4 3 3 5 6 6 5 5 2 3 5 6 5 6 8 8 8 9 10 11 12 12 12 11 10 10 8 8 10 11 10 8 7 8 8 9 9 7 6 7 8 9 7 7 8 9 8 7 6 6 7 8 7 6 7 10 13 14 14 13 11 9 8 10 12
5 3 1 2 2 3 3 2 1 1 0 2 2 1 2 3 5 5 2 2 3 3 2 0 3 4 4 4 5 5 5 5 5 4 5 7 8 9 9 9 10 11 12 12 12 13 13 12 13 13 13 11 9 8 9 9 9 8 8 7 6 5 4 3 3 3 5 5 5 7 8 9 8 6 5 7 8 8 9 10 8 7 6 7 9 10
2 2 0 2 2 3 3 2 1 1 1 1 1 3 2 2 4 3 2 3 4 2 1 2 3 4 4 4 5 7 7 7 7 6 6 7 8 9 10 10 11 13 14 13 13 14 16 17 17 18 17 14 11 9 9 10 11 11 11 10 9 6 4 3 4 5 6 6 5 4 4 4 3 3 4 7 7 5 5 6 6 6 6 6 6 7
1 1 0 1 2 1 1 1 1 0 1 2 4 2 0 2 2 0 2 2 2 2 3 4 5 5 6 8 9 9 8 8 8 7 7 8 8 8 9 10 12 13 13 13 14 14 16 18 20 21 22 21 20 18 17 17 16 14 14 13 11 8 8 9 10 9 9 8 7 6 5 3 2 1 3 4 4 3 4 5 5 4 5 5 5 6
1 1 1 2 1 1 1 2 1 1 2 3 4 1 2 1 1 3 3 2 3 5 5 5 6 7 9 11 11 10 10 9 8 8 8 8 8 8 8 9 11 12 13 14 15 16 17 19 19 21 23 26 26 26 26 26 24 19 17 18 15 12 14 16 17 17 16 15 15 14 11 9 7 6 5 4 2 1 3 4 3 3 4 5 6 7
1 1 1 1 1 1 2 2 0 1 2 2 2 1 0 2 1 4 4 3 4 5 6 6 7 9 11 12 12 11 10 9 8 8 8 7 7 8 8 9 10 12 13 14 15 16 18 19 19 20 24 27 28 28 29 30 28 24 21 20 19 20 20 20 20 21 19 19 20 19 16 13 10 8 8 7 4 1 2 2 3 4 4 5 6 8
0 1 1 1 1 1 1 2 1 2 2 1 1 1 1 1 1 3 5 5 5 5 6 7 9 9 10 12 12 10 8 8 8 8 7 7 7 7 8 8 9 11 12 13 14 15 16 18 18 19 22 25 27 27 27 27 27 25 21 20 21 23 24 23 23 22 22 22 22 21 18 17 15 14 13 12 9 7 5 5 5 6 6 5 6 9
1 0 0 1 2 1 1 2 1 1 2 2 1 1 1 1 2 3 6 7 6 6 7 8 9 8 7 9 10 9 7 7 8 8 7 7 7 7 7 8 8 9 11 12 13 15 16 16 17 18 19 21 23 24 24 24 24 23 20 19 20 21 22 22 22 22 21 21 21 20 19 19 18 18 18 18 17 15 13 10 9 9 8 8 9 10
1 2 1 2 2 2 2 2 1 1 2 2 2 3 3 4 3 4 7 8 8 8 9 9 8 7 6 7 9 8 7 7 7 6 5 6 7 7 8 8 8 9 10 11 13 16 17 16 16 16 17 17 19 21 21 21 21 20 18 18 19 19 19 19 18 18 17 17 18 19 19 18 18 18 18 19 19 19 17 15 13 11 10 10 10 10
2 3 2 2 2 1 2 3 2 2 1 1 1 3 5 6 6 5 7 8 8 8 8 7 7 6 6 7 8 8 7 6 6 5 5 5 6 7 7 7 7 8 10 12 15 17 17 16 15 15 15 16 17 18 20 20 19 18 17 17 16 17 18 17 16 15 14 15 16 17 17 16 16 17 18 18 18 18 17 15 13 12 11 10 10 9
2 3 2 3 3 2 2 3 4 4 3 1 1 3 4 6 9 9 8 9 9 9 8 7 6 7 8 8 8 8 7 6 5 5 5 4 5 7 7 7 7 8 10 12 14 16 16 15 14 14 15 16 16 17 19 19 18 17 17 17 16 16 17 18 18 17 15 15 15 15 15 15 15 16 17 17 17 16 15 13 12 10 9 8 7 7
3 3 3 3 3 3 4 7 7 4 4 3 3 4 4 5 9 11 10 10 10 9 9 8 8 8 8 8 8 9 8 5 4 5 5 4 4 6 7 7 7 8 9 10 12 13 14 14 14 14 14 15 15 16 17 18 17 17 16 16 15 16 17 18 19 18 16 15 14 14 14 15 15 15 16 16 16 16 16 14 13 11 10 8 6 4
4 4 5 4 2 1 4 9 6 3 5 5 5 5 4 3 7 10 9 9 9 8 9 10 10 9 8 7 7 8 7 6 5 5 6 5 5 6 7 8 8 8 8 8 9 11 12 13 13 13 13 13 13 14 16 16 16 16 15 14 14 14 16 17 17 16 15 14 14 13 14 14 14 14 15 15 15 15 15 15 14 13 12 11 9 7
Wind_Direction
205 184 195 209 203 211 218 221 227 18 28 28 337 329 348 274 105 84 357 171 172 163 143 186 189 161 173 180 179 178 178 178 173 170 173 175 176 182 188 191 196 204 206 194 190 192 192 188 177 170 168 168 170 173 174 172 173 171 169 172 174 175 177 173 173 175 172 168 165 163 162 160 163 163 162 166 170 170 170 168 164 162 160 159 161 162
217 206 200 208 221 246 244 227 233 247 277 310 318 339 6 323 86 61 355 177 187 203 165 139 156 161 165 174 175 177 183 186 181 177 178 179 180 184 190 194 198 203 195 179 182 187 187 185 178 171 169 169 169 174 178 177 176 174 174 175 174 175 180 180 180 180 179 176 171 168 166 164 165 167 168 170 172 170 170 171 168 165 165 164 164 165
201 213 256 311 219 221 226 206 222 241 261 286 309 332 341 325 139 88 31 357 294 244 177 134 134 137 128 164 177 181 191 194 188 186 184 182 183 184 190 196 198 197 189 181 183 185 186 183 178 174 172 173 173 175 180 181 179 179 180 179 178 179 180 184 186 185 184 182 176 171 168 165 165 172 175 172 171 170 170 174 174 171 169 169 168 170
190 166 96 181 183 186 204 181 201 235 248 256 270 299 319 182 224 270 88 5 321 328 143 124 102 70 84 160 189 188 191 186 187 194 190 189 189 188 192 197 200 197 189 184 186 186 184 181 180 179 176 175 174 176 180 182 180 182 186 185 185 186 186 187 188 187 186 183 178 176 174 171 170 176 177 175 175 176 176 180 182 181 178 176 176 176
206 146 124 135 161 200 230 157 190 240 246 233 244 283 290 225 231 324 95 111 332 354 108 115 83 304 199 189 196 187 186 180 184 196 196 198 198 192 192 199 203 200 190 184 185 185 183 183 184 183 178 176 177 181 183 182 182 184 188 190 189 189 189 188 188 187 185 183 181 181 180 180 180 178 180 183 183 185 187 189 192 193 194 190 187 184
257 160 146 151 163 180 221 227 216 240 267 252 165 253 270 241 171 119 126 147 210 279 209 152 181 244 187 202 205 187 193 199 186 197 202 200 197 193 195 201 205 204 195 186 184 186 186 185 184 182 181 180 182 185 185 184 185 184 187 191 189 188 188 187 187 186 183 182 183 183 180 181 182 178 184 188 185 186 189 192 196 202 205 202 197 196
244 141 158 178 191 189 230 261 211 202 263 275 111 239 256 211 144 144 157 165 175 236 214 186 208 235 188 212 212 195 201 205 196 202 206 200 196 197 200 201 202 203 200 192 187 187 187 184 180 183 187 187 186 186 184 182 185 187 189 190 189 188 188 187 187 184 182 184 186 187 183 183 185 184 189 189 184 183 185 188 194 202 208 206 204 210
183 170 168 188 201 206 233 254 200 194 251 290 99 156 201 158 143 152 160 165 116 71 191 196 211 251 239 221 207 199 206 210 209 209 207 200 198 200 203 202 200 201 199 193 187 186 186 185 183 187 191 191 188 184 182 182 184 191 194 193 190 190 188 188 188 186 186 189 192 193 191 191 193 193 193 191 189 189 187 190 193 198 207 208 208 216
178 195 192 191 194 218 236 248 188 179 233 1 105 118 135 138 145 153 160 165 127 47 211 199 196 230 247 215 187 197 207 213 214 212 208 202 200 201 203 203 202 199 196 192 188 185 187 189 189 190 189 188 186 183 183 183 184 191 197 196 193 192 191 190 190 191 192 195 198 199 198 199 202 204 203 198 198 199 197 200 201 199 206 211 212 215
215 221 204 197 206 229 234 214 175 175 148 116 120 111 113 124 133 149 166 152 135 239 242 196 183 211 256 188 175 195 209 213 213 212 211 204 201 202 202 203 201 195 193 194 191 187 189 193 192 189 185 184 184 183 184 182 183 189 194 197 195 193 193 193 193 195 197 199 203 206 206 207 210 214 215 211 206 204 204 207 209 207 207 211 213 216
256 58 151 206 217 221 174 89 170 168 136 135 131 113 110 117 120 136 148 151 188 239 265 198 187 204 266 196 184 193 200 205 206 206 209 207 203 203 201 201 198 192 189 191 192 189 190 192 191 185 182 182 180 180 181 182 184 187 191 195 196 194 195 196 197 198 200 203 207 210 212 213 218 222 221 217 211 210 209 210 212 212 212 212 213 217
270 202 182 224 212 161 111 85 117 146 142 150 146 131 133 125 139 169 147 181 243 239 5 186 184 201 241 220 193 193 187 194 199 197 200 204 205 201 200 199 195 192 189 187 190 188 183 183 183 183 181 179 178 179 182 185 186 187 189 193 195 196 197 197 200 202 204 208 211 213 214 217 221 223 221 217 215 214 213 212 214 216 217 219 219 219
261 213 178 249 172 163 145 103 103 145 157 178 165 150 187 236 207 232 195 215 255 249 51 143 164 199 246 247 213 202 196 197 200 196 194 198 201 197 194 195 190 189 189 186 184 180 176 176 179 182 180 177 180 183 184 187 188 189 192 194 195 197 199 199 201 205 208 211 213 214 216 219 222 224 223 221 219 219 219 219 219 219 221 225 224 222
264 166 132 150 163 181 181 152 149 169 181 195 178 167 205 221 219 241 219 255 269 236 144 166 169 214 261 256 220 210 207 203 199 200 198 194 197 193 189 189 184 182 186 185 181 179 179 180 180 182 181 181 184 186 186 187 189 190 193 196 198 199 201 202 202 205 208 212 214 216 217 220 223 225 227 226 224 224 227 228 226 225 224 226 227 226
272 102 149 182 155 177 194 196 179 168 177 193 177 172 213 214 233 268 219 250 303 118 152 161 177 229 244 170 218 222 216 205 196 198 203 200 196 189 183 182 179 180 183 182 182 183 183 181 180 181 183 184 186 186 187 187 189 191 195 199 200 201 202 203 204 206 209 210 213 216 218 220 224 228 231 230 231 233 234 235 233 232 230 227 229 230
262 332 257 271 176 179 193 192 161 159 165 184 161 175 229 218 213 303 348 270 327 293 193 177 211 258 238 192 193 209 208 199 189 190 202 207 195 181 179 179 180 183 183 182 184 186 185 181 179 181 183 185 185 185 186 187 189 193 197 201 203 204 204 205 205 207 209 211 213 216 217 219 223 228 232 235 239 240 239 240 240 240 238 232 230 232
264 47 359 319 183 190 197 160 160 180 157 150 178 189 178 67 144 204 188 113 273 266 213 188 240 269 260 246 177 165 178 179 180 186 197 201 183 179 183 181 183 184 180 182 185 185 182 180 180 182 184 184 184 186 188 189 192 194 197 200 202 203 204 206 207 208 209 211 214 217 218 219 222 225 229 235 240 241 242 245 245 243 241 235 231 232
268 352 31 353 46 187 206 155 153 213 165 158 189 169 109 62 46 295 242 205 227 260 215 200 250 280 270 264 98 161 178 173 179 184 188 185 175 184 190 183 185 185 180 181 183 182 180 180 182 183 184 186 187 189 191 192 193 194 197 199 200 201 203 206 207 207 209 212 213 215 216 217 221 224 227 232 238 242 244 246 246 243 241 238 234 234
252 264 60 10 37 96 161 160 147 152 182 96 126 142 133 166 155 38 275 238 228 259 261 210 246 275 250 284 9 251 205 187 183 182 184 181 178 188 189 179 180 181 179 181 182 182 183 184 185 184 185 187 188 190 193 192 192 194 196 198 200 202 204 205 204 205 209 212 211 212 213 216 221 224 227 234 239 242 242 243 243 243 243 241 239 239
255 280 90 56 34 111 163 179 176 168 135 80 111 137 97 121 132 108 272 273 272 268 292 263 247 199 182 321 324 294 243 202 186 184 189 186 183 186 178 168 174 175 176 183 184 184 185 188 189 188 187 187 188 190 191 190 191 194 196 197 199 201 202 202 201 203 208 210 209 210 213 216 221 225 228 233 237 237 237 239 240 242 244 245 244 244
200 288 340 55 51 185 182 189 206 187 156 139 152 167 172 138 135 151 234 268 276 274 288 297 288 96 78 338 309 297 272 217 195 191 190 188 188 185 171 166 172 175 178 182 186 186 186 189 190 190 190 187 186 189 189 190 192 194 196 197 199 199 199 201 201 204 207 207 207 210 213 216 220 223 224 227 230 230 232 237 241 243 246 249 250 249
206 273 289 11 83 205 207 253 284 289 110 129 184 186 178 158 144 171 227 241 245 266 278 293 302 348 43 347 322 310 292 236 206 198 192 188 189 187 178 172 170 176 182 183 187 188 186 188 189 189 186 183 184 187 189 192 193 193 195 196 197 199 200 202 202 203 206 207 208 210 211 213 215 219 220 220 222 224 227 234 240 244 248 249 251 252
177 153 259 304 24 2 354 42 327 323 124 143 216 203 165 154 155 190 228 236 303 297 278 289 290 199 34 355 345 335 315 254 208 200 194 187 186 185 182 177 175 182 185 184 188 189 186 187 188 186 183 182 185 187 188 191 192 193 196 196 196 199 204 207 206 204 206 209 211 211 210 210 213 216 218 218 220 223 225 229 234 242 247 245 246 250
181 153 356 309 115 101 103 104 49 3 123 159 164 73 153 165 146 196 257 339 322 293 279 287 270 139 41 5 1 4 4 13 187 190 188 183 180 182 181 179 182 185 183 183 186 186 184 184 184 184 183 183 186 188 189 191 192 194 196 197 200 204 208 210 208 205 208 212 213 211 210 211 213 214 216 218 220 222 224 226 230 237 242 239 239 244
206 219 11 255 181 129 122 133 75 11 5 351 4 4 334 35 115 160 294 322 288 275 265 276 269 78 31 10 17 24 38 57 82 162 185 185 182 186 185 176 174 177 175 177 180 180 181 182 183 184 184 184 187 190 191 193 194 196 198 201 205 208 209 209 207 205 210 212 210 209 211 212 213 215 216 218 220 222 223 224 225 231 234 234 236 239
31 290 260 230 206 154 123 121 24 345 324 316 338 346 335 314 169 215 271 227 241 251 187 252 271 88 33 15 25 28 36 48 57 89 162 186 185 188 185 169 162 167 168 171 177 180 181 182 183 184 185 187 190 192 192 194 196 197 200 204 207 209 206 205 207 208 210 210 207 208 212 213 213 215 216 218 220 221 222 221 221 226 229 230 234 238
97 37 19 78 95 106 104 89 49 6 329 332 347 345 337 307 214 216 241 229 238 240 198 235 303 107 45 17 22 26 30 40 46 59 115 163 171 179 175 156 145 150 156 164 173 176 179 182 185 187 187 188 194 196 195 196 197 198 200 204 207 209 207 207 211 212 212 210 206 209 216 215 214 216 216 217 219 219 220 221 223 225 228 230 234 237
121 86 64 85 95 109 112 98 69 46 23 1 1 353 340 325 218 207 225 217 190 249 234 162 128 130 54 22 17 22 26 34 39 45 80 124 134 149 149 137 134 136 135 146 162 174 181 187 190 190 190 191 195 197 197 198 199 199 201 203 204 206 207 210 214 213 213 212 208 213 219 219 217 218 217 217 219 220 220 221 225 228 231 233 235 238
115 111 114 106 110 122 115 95 81 59 9 339 3 2 346 331 254 209 214 196 199 246 224 129 132 119 59 25 17 24 24 28 36 44 66 97 112 114 121 126 129 129 127 130 147 173 187 194 196 195 195 196 196 197 199 200 199 199 201 202 204 206 208 211 213 212 212 212 213 219 223 223 222 223 223 223 224 225 224 222 226 230 234 236 238 239
90 96 129 127 118 122 113 91 89 76 352 317 353 358 348 333 292 219 121 145 182 163 125 128 120 93 63 32 29 33 34 43 51 58 66 81 95 94 97 104 105 104 105 103 98 105 167 197 207 207 206 204 201 201 201 199 198 199 200 201 205 209 211 212 211 210 210 213 218 223 225 225 226 227 227 227 227 229 228 227 228 231 234 238 239 239
7 117 152 151 113 114 121 97 82 74 273 285 355 358 352 335 295 233 109 123 143 130 132 131 115 89 65 57 57 52 52 56 57 59 59 63 79 88 86 72 64 64 66 64 58 55 59 50 239 226 223 218 213 208 204 201 198 198 198 201 206 210 211 211 210 209 211 215 220 223 224 225 227 228 229 229 230 231 232 233 234 236 239 241 242 245
56 130 176 179 121 141 141 116 92 243 226 175 30 6 352 330 292 223 105 98 130 151 148 130 110 97 83 81 77 66 62 55 47 50 55 56 65 76 80 73 58 49 49 44 38 45 49 37 17 325 278 254 236 223 215 209 203 201 202 203 205 209 210 210 208 207 209 214 218 219 220 222 225 227 229 231 231 232 235 238 239 241 245 245 245 250
108 148 170 188 162 139 122 128 216 236 225 90 37 20 354 326 309 311 72 49 39 148 153 128 107 101 88 82 77 69 66 57 43 43 51 55 61 65 67 70 66 61 58 47 32 35 37 33 29 25 19 358 302 253 231 219 205 201 205 207 207 209 209 207 205 204 206 211 216 217 215 215 220 225 229 233 235 236 238 240 241 244 247 249 250 251
123 137 137 295 239 116 90 305 249 257 18 39 94 132 157 295 301 311 2 19 9 32 117 107 100 96 86 77 75 72 69 63 54 47 48 50 57 61 60 58 58 58 55 47 39 32 19 7 2 3 7 5 360 338 240 218 208 204 208 211 211 210 209 205 200 199 201 201 205 210 211 211 215 222 230 235 237 239 240 241 244 247 250 253 255 256
121 111 113 47 60 104 57 316 286 124 13 8 70 144 165 231 281 300 320 346 357 12 89 103 100 96 89 81 78 77 74 67 59 53 48 45 45 54 58 53 49 50 47 44 45 40 23 357 338 323 304 304 322 338 348 172 191 199 202 205 206 206 207 203 197 196 196 189 186 191 195 197 205 219 236 244 243 240 239 244 251 254 255 256 256 258
138 134 136 84 75 121 157 295 255 236 298 333 335 351 131 160 278 286 298 331 350 345 30 100 105 99 91 86 82 82 81 73 61 50 45 43 42 47 54 54 50 48 44 42 41 37 29 12 355 333 295 284 289 288 281 260 171 179 181 184 192 197 200 197 195 194 187 178 185 196 201 204 207 214 228 242 248 242 230 231 249 259 267 267 262 257
137 144 161 150 116 142 156 119 27 334 313 308 307 306 137 159 222 265 293 318 334 309 321 88 109 112 107 97 80 68 77 75 63 46 38 41 45 47 50 51 51 52 50 48 49 45 39 35 30 17 318 280 277 271 262 251 236 226 204 184 185 190 191 190 190 187 179 180 192 202 213 220 220 219 224 235 248 247 239 233 237 248 266 276 272 261
88 146 187 199 177 130 140 125 112 156 213 183 176 175 200 207 185 177 241 311 258 225 244 151 134 135 127 102 59 15 120 74 58 42 32 35 41 46 50 52 53 55 53 49 50 48 45 51 59 61 68 97 175 232 247 242 222 211 198 179 181 191 194 193 190 184 180 184 188 185 210 239 241 234 231 237 248 253 250 245 241 244 252 260 268 271
71 61 120 179 178 164 187 194 169 188 206 144 155 180 244 238 191 178 183 244 246 235 228 167 152 137 115 79 38 31 142 98 69 53 38 38 40 42 50 56 57 58 57 52 50 48 47 52 61 66 69 75 101 154 193 202 186 172 155 146 164 181 184 181 177 180 181 182 190 207 227 245 254 251 248 253 255 254 256 255 252 251 249 248 260 272
72 67 153 203 191 173 196 213 208 220 153 114 157 250 291 235 207 209 208 130 165 224 285 22 126 99 70 54 50 66 93 100 94 79 58 55 54 50 51 56 56 56 58 57 56 56 55 52 53 56 55 52 70 113 144 155 149 130 116 119 131 144 166 171 165 194 203 188 185 209 223 232 243 259 280 277 261 251 254 255 246 231 226 232 241 249
65 53 334 219 182 177 200 199 213 266 95 88 320 324 345 212 214 239 346 73 126 159 348 41 85 78 63 71 81 80 81 92 102 97 79 69 61 53 53 57 60 63 64 62 60 61 61 59 56 56 56 53 58 80 106 115 104 91 94 101 100 97 117 160 176 194 204 191 172 180 205 228 255 285 280 265 255 238 233 237 228 218 223 228 215 203
136 113 100 187 151 151 197 189 218 236 97 27 338 331 157 233 253 354 51 74 104 96 84 92 98 96 96 97 99 100 99 100 100 94 82 72 64 56 50 51 58 62 61 59 58 62 66 65 61 59 60 62 64 67 76 81 74 66 71 72 64 69 92 109 126 136 136 130 124 116 110 103 90 121 203 228 235 226 227 235 233 226 223 211 189 178
164 182 174 160 139 109 169 183 222 196 96 24 339 270 192 284 354 99 105 99 90 89 98 107 111 115 116 110 106 108 109 105 99 93 82 74 71 64 52 48 55 59 58 58 59 63 69 69 65 61 63 66 68 68 70 71 66 58 56 55 52 63 84 95 104 109 109 111 111 110 112 116 123 132 134 125 118 205 235 229 214 208 198 176 166 159
182 254 227 161 178 243 194 162 185 355 31 11 331 263 357 357 93 129 123 102 98 105 110 113 118 122 121 117 114 113 111 105 101 97 87 77 75 72 62 56 58 62 63 64 63 64 68 70 69 66 67 69 70 70 70 72 70 63 57 60 69 77 81 85 92 95 96 98 101 103 105 106 106 103 97 95 97 129 208 184 160 158 156 151 151 148
112 351 326 113 134 270 341 58 34 353 356 344 301 313 8 19 133 140 125 113 114 119 117 120 125 123 120 120 119 114 108 103 100 97 90 82 76 73 70 64 62 65 68 67 67 68 70 72 72 70 69 70 71 71 70 71 74 73 69 73 79 79 78 80 84 85 84 84 86 89 92 92 91 88 85 88 92 95 99 110 119 122 118 113 122 131
23 33 334 117 138 152 38 38 27 17 30 42 51 43 67 93 116 129 123 118 118 122 123 127 128 123 120 123 120 112 109 109 102 96 94 92 85 80 78 74 65 66 69 68 69 73 75 75 73 71 68 67 69 71 70 70 72 76 80 83 82 77 76 80 83 82 82 83 83 82 81 81 82 83 83 84 86 88 92 99 109 113 109 102 105 114
181 190 137 114 152 167 138 116 90 42 26 26 64 90 91 83 84 109 118 120 122 124 125 128 128 124 119 119 118 114 113 113 107 99 95 95 92 88 85 79 69 68 72 75 80 82 79 74 71 69 68 65 66 69 71 70 71 74 78 82 83 82 83 88 90 89 88 86 83 79 76 75 76 81 85 85 85 87 91 96 102 106 105 105 106 107
171 186 160 121 134 129 103 107 96 69 44 344 39 94 103 102 98 97 108 118 121 118 118 122 125 126 123 119 120 121 117 112 110 109 103 97 96 94 89 85 80 78 81 86 89 87 82 75 70 67 64 63 64 67 70 70 69 71 73 75 79 81 83 87 92 95 95 92 87 83 82 82 83 86 89 90 89 90 91 95 98 102 103 103 104 103
148 170 159 127 125 106 98 145 155 135 118 110 79 90 106 116 118 115 114 118 119 116 114 113 111 116 124 127 128 126 120 113 111 110 108 106 103 100 97 93 88 85 87 91 92 91 88 84 79 74 68 64 63 66 70 70 69 69 71 73 74 75 77 81 86 89 93 94 91 88 87 89 93 96 97 96 95 92 90 90 90 92 94 93 95 100
167 156 149 152 156 159 164 170 172 150 130 146 146 121 119 127 128 127 127 127 125 123 121 116 108 109 116 126 135 134 126 120 125 123 115 108 105 107 109 109 104 98 95 94 93 92 93 91 87 84 79 73 68 67 68 69 69 67 67 67 67 68 72 76 79 82 86 90 92 93 94 96 100 102 102 101 99 96 92 89 85 83 83 81 79 85
187 168 170 177 181 162 155 161 169 138 124 144 146 130 137 146 128 125 128 130 128 126 125 123 120 117 113 111 122 129 126 123 130 126 111 100 102 116 125 124 119 113 105 97 93 91 91 91 91 91 88 82 76 72 69 68 67 65 63 62 61 64 68 72 74 75 78 82 88 95 101 104 106 107 105 104 104 102 98 93 87 82 79 77 76 78